Comodoro Rivadavia, Argentina

11:45 PM America en Octubre 16, 2017 (GMT +0000)
GEN. Enrique Mosconi International

Tiempo Historia de SAVC - Abril, 2017

Change the Weather History Date:

Viernes, Abril 21, 2017

  Actual Average Record
Temperature  
Temperatura media 52 ° F -  
Temperatura máxima 61 ° F 59 ° F 71 ° F (1997)
Temperatura mínima 43 ° F 44 ° F 35 ° F (2012)
Degree Days  
Grados día de calefacción 13    
Growing Degree Days 2 (Base 50)    
Moisture  
Punto de rocío 32 ° F    
Average Humidity 41    
Maximum Humidity 57    
Minimum Humidity 21    
Precipitación  
Precipitación 0.00 pul 0.04 pul - ()
Presión al nivel del mar  
Presión al nivel del mar 29.78 pul    
Viento  
Velocidad del viento 14 mph ()    
Velocidad máxima del viento 28 mph    
Max Gust Speed 40 mph    
Visibilidad 11.9 Millas    
Eventos      
Averages and records for this station are not official NWS values.
T = Trace of Precipitation, MM = Missing Value Source: Averaged Metar Reports

Daily Weather History Graph

Daily Weather History Graph

Search for Another Location

Airport or City:

Trip Planner

Search our weather history database for the weather conditions in past years. The results will help you decide how hot, cold, wet, or windy it might be!

Date:

Astronomía

Apr. 21, 2017 Salida Puesta
Hora real 8:14 AM -03 6:42 PM -03
Crepúsculo civil 7:43 AM -03 7:12 PM -03
Crepúsculo náutico 7:08 AM -03 7:47 PM -03
Crepúsculo astronómico 6:34 AM -03 8:22 PM -03
Luna 2:13 AM -03 (4/21) 4:24 PM -03 (4/21)
Horas de luz 11h 29m
Horas de luz
10h 28m
Creciente menguante, 28% of the Moon is Illuminated
Abr 21
Creciente menguante
Abr 26
Nueva
May 2
Cuarto creciente
May 10
Luna llena
May 18
Cuarto menguante

Hourly Weather History & Observations

Hora (-03) Temp. Vientos helados Punto de rocío Humedad Presión Visibilidad Wind Dir Velocidad del viento Velocidad de ráfagas Precip Eventos Condiciones
12:00 AM 53 ° F - 31 ° F 31% 29.63 pul 19 mi Oeste 20.7 mph - -  
12:00 AM 53.6 ° F - 30.2 ° F 41% 29.65 pul - Oeste 20.7 mph 33.4 mph N/A   Despejado
1:00 AM 51.8 ° F - 30.2 ° F 44% 29.65 pul - Oeste 27.6 mph 40.3 mph N/A   Despejado
2:00 AM 51.8 ° F - 30.2 ° F 44% 29.68 pul - Oeste 24.2 mph 38.0 mph N/A   Despejado
3:00 AM 50 ° F - 31 ° F 36% 29.69 pul 19 mi Oeste 16.1 mph - -  
3:00 AM 50.0 ° F - 30.2 ° F 47% 29.71 pul - Oeste 16.1 mph - N/A   Despejado
4:00 AM 50.0 ° F - 30.2 ° F 47% 29.74 pul - Oeste 15.0 mph - N/A   Despejado
5:00 AM 48.2 ° F - 32.0 ° F 54% 29.77 pul - Oeste 13.8 mph - N/A   Despejado
6:00 AM 50 ° F - 32 ° F 38% 29.75 pul 19 mi Oeste 15.0 mph - -  
6:00 AM 50.0 ° F - 32.0 ° F 50% 29.77 pul - Oeste 15.0 mph - N/A   Despejado
7:00 AM 46.4 ° F 41.1 ° F 32.0 ° F 57% 29.80 pul 6.2 mi ONO 11.5 mph - N/A   Parcialmente nublado
8:00 AM 46.4 ° F 40.1 ° F 32.0 ° F 57% 29.83 pul 6.2 mi ONO 15.0 mph - N/A   Parcialmente nublado
9:00 AM 46 ° F - 32 ° F 46% 29.81 pul 19 mi Oeste 16.1 mph - -   Nubes dispersas
9:00 AM 46.4 ° F 39.8 ° F 32.0 ° F 57% 29.83 pul 6.2 mi Oeste 16.1 mph - N/A   Parcialmente nublado
10:00 AM 50.0 ° F - 32.0 ° F 50% 29.86 pul 6.2 mi ONO 16.1 mph - N/A   Parcialmente nublado
11:00 AM 53.6 ° F - 32.0 ° F 44% 29.89 pul 6.2 mi Oeste 11.5 mph - N/A   Parcialmente nublado
12:00 PM 57 ° F - 33 ° F 28% 29.84 pul 19 mi Oeste 12.7 mph - -  
12:00 PM 57.2 ° F - 32.0 ° F 38% 29.86 pul - Oeste 12.7 mph - N/A   Despejado
1:00 PM 59.0 ° F - 32.0 ° F 36% 29.86 pul 6.2 mi Oeste 12.7 mph - N/A   Parcialmente nublado
2:00 PM 60.8 ° F - 28.4 ° F 29% 29.83 pul 6.2 mi SO 8.1 mph 25.3 mph N/A   Parcialmente nublado
3:00 PM 60 ° F - 31 ° F 21% 29.80 pul 19 mi Oeste 11.5 mph - -   Nubes dispersas
3:00 PM 60.8 ° F - 30.2 ° F 31% 29.83 pul 6.2 mi Oeste 11.5 mph - N/A   Parcialmente nublado
4:00 PM 60.8 ° F - 32.0 ° F 34% 29.83 pul 6.2 mi Oeste 13.8 mph - N/A   Parcialmente nublado
5:00 PM 60.8 ° F - 30.2 ° F 31% 29.80 pul - ONO 12.7 mph - N/A   Despejado
6:00 PM 59 ° F - 31 ° F 23% 29.77 pul 19 mi ONO 10.4 mph - -   Nubes dispersas
6:00 PM 59.0 ° F - 32.0 ° F 36% 29.80 pul 6.2 mi ONO 10.4 mph - N/A   Parcialmente nublado
7:00 PM 57.2 ° F - 32.0 ° F 38% 29.80 pul - ONO 12.7 mph - N/A   Despejado
8:00 PM 53.6 ° F - 33.8 ° F 47% 29.80 pul - ONO 9.2 mph - N/A   Despejado
9:00 PM 53 ° F - 34 ° F 36% 29.76 pul 19 mi NO 8.1 mph - -   Muy nublado
9:00 PM 53.6 ° F - 33.8 ° F 47% 29.77 pul - NO 8.1 mph - N/A   Despejado
10:00 PM 53.6 ° F - 30.2 ° F 41% 29.77 pul - Oeste 17.3 mph - N/A   Despejado
11:00 PM 51.8 ° F - 32.0 ° F 47% 29.77 pul - Oeste 10.4 mph - N/A   Despejado